Agra, Italy

3:28 AM CEST on July 26, 2017 (GMT +0200)
Agra

Weather History for 06760 - November, 2013

Change the Weather History Date:

Wednesday, November 13, 2013

  Actual Average Record
Temperature  
Mean Temperature 51 °F -  
Max Temperature 59 °F 47 °F - ()
Min Temperature 43 °F 33 °F - ()
Degree Days  
Heating Degree Days 14    
Growing Degree Days 1 (Base 50)    
Moisture  
Dew Point 37 °F    
Average Humidity 50    
Maximum Humidity 64    
Minimum Humidity 33    
Precipitation  
Precipitation 0.00 in - - ()
Sea Level Pressure  
Sea Level Pressure 30.17 in    
Wind  
Wind Speed 2 mph ()    
Max Wind Speed 4 mph    
Max Gust Speed -    
Visibility 17.0 miles    
Events      
T = Trace of Precipitation, MM = Missing Value Source: Averaged Metar Reports

Daily Weather History Graph

Daily Weather History Graph

Search for Another Location

Airport or City:

Trip Planner

Search our weather history database for the weather conditions in past years. The results will help you decide how hot, cold, wet, or windy it might be!

Date:

Astronomy

Nov. 13, 2013 Rise Set
Actual Time 7:22 AM CET 4:54 PM CET
Civil Twilight 6:50 AM CET 5:27 PM CET
Nautical Twilight 6:14 AM CET 6:03 PM CET
Astronomical Twilight 5:39 AM CET 6:38 PM CET
Moon 2:45 PM CET (11/13) 2:45 AM CET (11/13)
Length of Visible Light 10h 36m
Length of Day
9h 31m
Waxing Gibbous, 82% of the Moon is Illuminated
Nov 13
Waxing Gibbous
Nov 17
Full
Nov 25
Last Quarter
Dec 3
New
Dec 9
First Quarter

Hourly Weather History & Observations

Time (CET) Temp. Dew Point Humidity Pressure Visibility Wind Dir Wind Speed Gust Speed Precip Events Conditions
12:00 AM 48 °F 33 °F 43% 30.19 in - NE 2.3 mph - -  
1:00 AM 46 °F 34 °F 51% 30.20 in - NE 2.3 mph - -  
2:00 AM 46 °F 34 °F 51% 30.19 in - SSE 1.2 mph - -  
3:00 AM 46 °F 34 °F 52% 30.19 in - NNE 1.2 mph - -  
5:00 AM 45 °F 35 °F 57% 30.18 in - NW 1.2 mph - -  
6:00 AM 45 °F 35 °F 59% 30.19 in - NE 1.2 mph - -  
7:00 AM 44 °F 36 °F 64% 30.20 in 19 mi Calm Calm - -  
8:00 AM 45 °F 36 °F 62% 30.20 in - ENE 1.2 mph - -  
9:00 AM 48 °F 37 °F 56% 30.19 in - ESE 2.3 mph - -  
11:00 AM 54 °F 41 °F 50% 30.14 in - SSE 2.3 mph - -  
12:00 PM 56 °F 40 °F 44% 30.14 in - WSW 3.5 mph - -  
1:00 PM 56 °F 38 °F 40% 30.13 in 16 mi WSW 3.5 mph - -   Clear
2:00 PM 59 °F 38 °F 33% 30.11 in - SW 3.5 mph - -  
3:00 PM 59 °F 39 °F 36% 30.10 in - West 3.5 mph - -  
5:00 PM 54 °F 40 °F 49% 30.13 in - Calm Calm - -  
6:00 PM 54 °F 39 °F 46% 30.14 in - NNE 2.3 mph - -  
7:00 PM 54 °F 39 °F 46% 30.16 in 16 mi NNE 1.2 mph - -   Partly Cloudy
8:00 PM 52 °F 39 °F 50% 30.18 in - NE 1.2 mph - -  
9:00 PM 53 °F 39 °F 48% 30.19 in - NW 1.2 mph - -  
11:00 PM 51 °F 40 °F 57% 30.21 in - WNW 1.2 mph - -